Wednesday, January 17, 2018, 1:08 PM GMT
Back to Local

CWEP, East Point, P. E. I

Location: , , Canada Lat: 46.45
Local Time: 1:08 PM GMT (13:08 GMT) Lon: -61.967
Time Zone: GMT Elev: 36 ft

Show me the last for .
Show Coded

Time T Td Feel RH Dir Speed Gust Alt SLP Vis Weather Sky Remarks
2018-01-17 12:00 24 21 16 88 210° 7 - - 30.48 0 None
2018-01-17 11:00 24 21 17 89 230° 6 - - 30.47 0 None
2018-01-17 10:00 24 21 19 87 250° 5 - - 30.45 0 None
2018-01-17 09:00 25 21 19 86 250° 5 - - 30.45 0 None
2018-01-17 08:00 24 21 15 85 250° 8 - - 30.44 0 None
2018-01-17 07:00 25 22 18 85 220° 6 - - 30.43 0 None
2018-01-17 06:00 26 22 19 85 220° 6 - - 30.44 0 None
2018-01-17 05:00 26 22 20 85 230° 5 - - 30.44 0 None
2018-01-17 04:00 26 26 21 97 230° 5 - - 30.45 0 None
2018-01-17 03:00 27 24 22 88 230° 5 - - 30.45 0 None
2018-01-17 02:00 28 24 22 88 250° 5 - - 30.46 0 None
2018-01-17 01:00 28 25 18 87 290° 12 - - 30.44 0 None
2018-01-17 00:00 29 27 18 93 300° 14 - - 30.43 0 None
2018-01-16 23:00 31 26 22 82 290° 12 - - 30.42 0 None
2018-01-16 22:00 29 29 21 100 310° 9 - - 30.40 0 None
2018-01-16 21:00 28 26 18 90 310° 13 - - 30.39 0 None
2018-01-16 20:00 28 24 19 84 310° 9 - - 30.37 0 None
2018-01-16 19:00 28 22 19 78 310° 9 - - 30.34 0 None
2018-01-16 18:00 29 24 23 80 350° 7 - - 30.32 0 None
2018-01-16 17:00 29 26 19 88 330° 12 - - 30.34 0 None
2018-01-16 16:00 29 26 20 90 340° 9 - - 30.36 0 None
2018-01-16 15:00 30 29 20 96 360° 14 - - 30.34 0 None
2018-01-16 14:00 30 28 19 92 10° 14 - - 30.36 0 Peak wind: 28 mph (25 kts) from 40° at 23 min

Support USWX by starting your Amazon purchase here.